Wind_Speed
37 37 37 37 37 38 39 40 41 42 43 44 46 46 45 44 44 45 48 50 51 50 49 49 48 48 48 49 48 48 49 49 49 49 49 49 48 47 46 45 44 44 43 41 41 42 42 40 39 39 37 36 38 39 38 36 35 34 33 31 30 28 27 26 24 24 25 26 26 26 27 28 28 29 29 30 31 30 30 30 31 31 31 30 31
37 39 40 41 41 41 41 42 42 43 44 45 47 48 49 48 45 44 45 48 50 50 49 49 49 50 50 51 51 50 51 51 52 52 52 52 52 51 50 49 47 47 45 43 42 44 44 42 41 41 41 41 40 39 39 38 37 37 36 33 32 31 29 28 27 26 27 27 27 26 27 27 27 27 27 29 31 31 31 32 32 33 34 33 33
34 36 38 41 43 44 44 44 44 45 46 47 48 49 51 51 50 47 45 46 49 50 50 50 50 51 52 52 53 53 53 54 55 55 55 54 53 53 53 52 50 50 48 46 44 45 46 44 42 42 42 42 41 41 42 43 41 41 38 34 33 32 32 30 29 29 29 29 29 28 28 28 27 26 26 27 28 29 30 31 32 35 36 35 35
35 36 37 38 40 42 45 46 47 48 49 50 51 52 52 53 54 53 49 48 48 51 52 53 52 52 53 53 53 54 54 54 55 55 55 55 54 53 52 51 50 50 50 49 47 47 47 45 43 42 41 41 42 43 45 44 43 41 38 37 36 35 35 34 33 32 31 32 32 31 30 29 28 28 27 27 27 27 27 28 30 33 35 36 37
37 38 38 39 40 41 42 44 47 50 52 53 54 55 55 56 57 57 56 53 51 50 52 54 55 54 53 53 53 53 53 52 52 51 51 52 52 51 50 49 49 49 50 50 49 49 49 47 45 43 42 41 42 45 45 43 42 41 38 38 37 34 36 38 36 35 34 34 35 35 33 32 30 29 28 28 27 25 25 26 28 30 32 34 36
39 40 40 41 42 43 44 45 46 48 51 54 56 58 58 59 59 60 60 59 56 54 53 54 56 57 56 54 52 52 53 52 51 50 50 50 49 48 48 47 47 47 49 50 50 50 50 50 49 46 45 44 43 44 45 43 42 42 40 39 36 33 35 39 39 38 37 36 36 37 37 35 33 31 30 29 28 26 25 25 28 30 30 31 32
41 41 42 44 45 46 47 48 48 49 51 52 55 58 60 61 62 63 63 63 62 60 58 56 56 57 59 57 54 52 53 54 55 53 53 52 51 49 48 48 47 46 47 48 50 50 51 51 52 50 48 46 43 43 45 45 43 44 43 41 38 37 39 40 40 41 40 39 38 39 40 39 36 35 34 31 30 29 28 28 30 31 30 29 31
45 46 48 50 51 52 53 53 53 53 53 54 55 57 59 61 63 65 66 66 66 66 64 61 59 58 58 60 58 55 53 54 56 57 57 56 55 54 52 51 50 48 47 47 48 50 51 52 54 54 53 51 46 43 44 45 44 45 45 44 42 42 41 39 41 43 43 42 40 39 41 41 39 38 36 34 33 32 31 32 33 33 31 30 31
53 54 55 55 56 56 57 57 57 57 58 58 58 59 59 61 63 65 67 68 69 69 68 67 65 63 61 60 61 60 57 54 55 57 60 60 58 57 56 54 53 51 50 49 49 50 50 51 52 54 55 54 51 46 44 45 45 45 46 45 44 42 39 38 42 47 47 46 44 42 41 42 42 41 39 37 36 35 33 33 34 34 32 31 31
58 58 58 58 58 58 57 58 59 61 62 63 63 62 62 62 63 65 67 69 70 72 72 71 70 69 67 64 63 64 63 60 56 55 58 60 61 60 59 57 55 54 53 53 51 51 50 51 53 54 56 56 53 48 46 46 46 46 46 45 44 42 40 41 47 52 51 49 49 47 44 43 43 43 42 41 40 38 36 34 35 36 34 33 32
60 60 59 59 58 58 59 60 61 62 64 66 67 67 66 66 66 66 67 68 70 72 74 75 75 74 72 70 68 67 66 65 62 59 57 59 61 62 61 60 58 57 56 55 54 52 51 52 54 56 58 58 56 53 50 48 46 45 44 45 44 45 46 47 49 52 53 52 52 50 48 46 45 45 45 44 42 41 39 37 37 36 35 35 34
62 62 61 59 59 59 60 60 61 62 63 66 68 69 69 69 69 70 70 69 70 71 73 75 77 78 77 76 74 72 71 70 69 66 62 60 61 62 63 62 61 60 58 57 55 53 51 51 53 55 57 58 58 58 55 53 51 48 47 47 45 46 49 50 50 50 50 52 55 54 52 50 48 48 47 46 44 42 41 42 41 39 37 36 36
65 64 63 62 61 61 60 61 61 61 62 63 66 68 69 70 71 72 72 72 72 72 72 73 76 78 80 80 79 78 76 75 74 74 71 67 64 64 65 64 62 61 61 60 59 56 53 52 52 54 55 55 56 58 59 59 59 56 54 53 50 49 50 52 53 51 50 51 54 56 55 53 51 50 49 47 44 41 41 43 44 43 40 39 40
66 65 65 64 63 62 62 62 62 61 61 62 64 65 67 69 70 71 72 72 73 73 73 73 74 76 79 81 83 83 81 80 79 78 77 75 72 69 68 67 65 63 63 64 64 61 59 57 56 55 55 54 54 56 58 60 63 63 62 59 57 56 55 56 56 55 54 54 54 55 56 55 53 53 51 48 46 44 43 43 44 45 45 44 45
67 66 66 65 64 64 63 63 63 63 63 63 63 64 65 66 67 68 69 71 72 72 73 74 74 75 77 79 82 84 85 84 84 83 82 81 79 77 74 71 70 68 65 65 66 66 65 63 61 59 57 55 52 52 55 58 61 65 66 64 62 61 61 62 61 58 56 54 52 52 54 54 54 54 53 50 48 48 47 44 44 46 48 48 48
67 67 67 66 66 65 65 65 64 64 64 63 64 64 65 65 66 66 68 69 71 72 72 73 74 75 76 78 79 82 84 85 87 87 86 85 84 83 81 78 75 74 71 68 68 69 69 68 66 63 61 60 56 54 55 57 58 60 63 65 66 66 67 68 66 62 59 54 51 52 53 53 54 54 55 54 52 51 51 49 48 49 48 48 49
67 67 66 66 66 65 65 65 65 65 64 64 64 64 65 65 65 66 67 68 70 71 72 73 73 74 75 77 78 80 82 83 85 87 89 89 89 88 87 85 82 80 77 74 72 71 71 72 71 69 66 65 64 61 59 58 58 58 59 61 65 68 72 73 71 67 64 61 58 57 56 56 55 55 56 57 56 56 55 53 54 53 49 48 50
66 65 65 65 65 65 65 65 65 64 64 64 64 64 64 65 65 65 66 67 69 71 72 74 74 74 74 75 76 79 81 82 82 84 86 89 91 92 92 91 89 86 84 81 78 76 74 74 75 74 71 69 69 69 66 64 63 63 62 61 62 66 71 73 71 70 70 68 66 63 61 61 60 58 57 57 58 59 58 58 58 56 52 50 51
66 66 66 66 66 66 66 66 65 65 65 65 65 65 65 65 65 65 66 68 69 70 71 73 75 75 75 75 76 77 78 80 82 82 83 85 87 91 93 94 94 93 91 88 85 83 81 80 79 78 76 73 72 73 72 70 69 68 66 64 64 66 67 68 68 70 71 72 72 71 69 67 64 61 58 56 55 57 58 59 60 58 56 54 54
68 68 69 69 69 68 68 68 68 67 67 67 67 66 66 67 67 67 68 69 69 69 70 72 74 76 76 76 77 77 77 78 80 81 82 83 84 86 89 91 93 95 96 95 93 91 88 86 84 82 81 79 78 77 76 74 73 72 71 69 68 67 64 64 66 68 71 73 75 77 76 74 69 66 64 61 59 58 57 58 59 59 59 58 57
70 70 70 71 71 71 71 71 70 70 70 69 69 69 69 69 69 69 70 71 70 70 71 72 74 76 77 77 77 77 78 78 78 78 79 81 83 85 86 88 89 91 93 96 97 97 96 93 91 88 86 85 83 82 80 78 77 76 75 74 73 71 66 63 64 67 71 75 77 77 78 78 75 73 70 67 65 63 61 59 58 58 59 60 60
72 72 72 73 73 73 73 73 73 72 72 71 71 71 71 71 71 71 72 72 72 72 72 73 75 76 76 75 75 76 78 78 77 77 77 78 80 83 85 87 87 88 90 91 93 96 98 98 98 96 93 91 89 87 85 83 82 81 81 79 77 75 72 68 67 68 70 72 74 75 77 77 76 75 73 69 66 65 64 63 61 60 60 61 63
74 74 75 75 75 75 76 76 75 75 75 74 73 73 72 72 71 71 71 72 72 73 74 75 76 76 76 74 73 74 76 77 77 77 77 77 78 80 83 85 86 87 88 89 89 91 93 95 97 98 98 98 96 94 92 90 88 86 86 85 84 81 78 75 74 74 73 72 71 72 74 74 73 74 73 69 65 63 63 64 65 65 63 64 65
76 76 76 76 76 77 77 77 77 77 76 76 75 75 74 73 72 71 71 71 72 73 74 75 76 75 75 75 74 74 74 74 76 76 77 77 77 77 79 81 83 85 86 88 89 89 89 90 91 93 95 96 97 98 98 97 96 94 92 91 90 88 86 84 83 82 81 79 77 77 76 74 73 73 71 68 65 64 64 65 68 69 69 69 70
74 73 73 73 73 73 73 74 74 74 74 74 75 74 74 73 72 72 72 72 72 72 73 74 74 74 74 74 74 74 74 74 74 75 75 76 76 76 76 78 80 82 84 86 88 88 88 88 88 89 90 91 92 94 95 97 99 100 100 98 96 94 92 91 91 90 88 87 86 85 84 82 80 78 77 74 71 69 68 69 69 70 72 74 75
66 66 65 65 64 64 64 64 65 65 65 66 67 67 68 69 69 69 70 70 70 71 72 73 73 73 73 73 72 72 72 73 74 74 74 75 75 75 75 75 77 79 81 83 85 86 87 87 87 88 88 89 89 90 90 92 93 95 98 100 101 101 99 97 96 95 95 94 93 92 90 88 86 84 83 81 79 77 75 73 71 71 73 76 78
57 57 56 55 54 54 53 53 53 53 53 53 54 55 56 58 59 60 61 62 63 64 66 68 69 70 70 71 71 71 71 71 73 74 74 75 75 75 75 74 75 76 78 80 82 83 85 86 87 87 87 88 88 89 89 89 89 90 91 93 96 100 102 103 102 101 100 99 98 97 96 93 90 88 86 85 84 82 80 77 74 73 75 78 81
48 47 46 45 44 43 42 42 42 42 41 42 43 44 45 46 47 49 51 53 54 55 57 59 60 62 64 66 68 69 70 71 71 72 73 74 75 75 75 74 74 75 76 77 79 80 82 84 85 86 86 87 87 88 88 89 88 89 89 89 91 93 96 100 103 104 104 103 101 100 98 97 94 91 88 87 85 83 80 78 74 72 74 79 82
38 37 37 36 35 35 35 35 35 35 35 35 36 37 37 38 39 41 43 45 46 48 49 51 52 53 56 59 62 64 66 68 69 70 71 72 73 75 75 76 75 75 75 76 77 78 79 81 82 83 84 85 85 86 87 87 88 88 89 89 90 90 91 93 96 99 101 102 102 101 100 99 97 93 90 88 87 85 83 81 75 71 71 75 78
31 31 31 31 31 31 31 31 31 31 31 31 32 32 33 33 34 36 37 39 40 41 43 45 47 47 48 51 54 57 59 62 66 68 69 70 72 73 74 75 76 76 76 76 76 76 77 78 79 80 81 82 83 84 85 86 86 87 88 88 89 89 90 91 91 92 94 96 98 99 99 98 97 95 93 92 91 89 88 86 81 75 72 74 79
28 28 29 29 29 29 30 30 30 30 30 30 30 30 30 30 31 32 33 34 35 36 37 38 41 43 43 44 47 50 53 55 59 63 66 69 71 72 73 74 74 75 76 76 76 76 77 77 77 78 79 80 80 81 82 83 85 86 87 87 88 88 88 89 89 89 90 89 90 93 96 97 96 95 94 95 95 95 92 88 85 82 78 78 85
29 29 29 29 29 30 30 30 30 30 30 30 30 30 29 29 28 28 29 30 31 32 33 33 35 37 39 39 40 43 46 49 52 56 60 65 68 71 73 73 73 74 75 75 76 76 77 77 77 77 78 78 78 79 80 81 82 83 84 86 86 87 87 88 87 88 89 89 88 88 91 94 96 96 95 95 95 95 94 90 87 87 86 83 84
30 30 31 31 31 31 32 32 32 32 32 31 31 30 30 29 28 27 27 27 28 29 30 30 31 32 34 35 36 37 40 43 47 50 54 59 64 68 71 73 73 74 74 75 75 76 76 77 77 77 78 78 78 78 78 79 80 80 81 82 83 84 84 85 86 86 88 90 91 91 90 91 93 95 96 96 95 95 94 91 88 89 90 87 84
32 32 32 32 32 32 33 33 33 33 33 33 32 32 31 31 30 28 27 26 26 27 28 29 29 29 30 31 32 33 34 37 41 45 49 53 58 63 68 72 73 74 75 75 75 75 76 76 77 77 78 78 78 78 78 78 78 78 79 79 79 80 81 82 83 84 85 87 90 92 92 92 91 92 93 95 97 96 95 93 89 87 87 86 84
32 32 32 32 33 33 33 33 33 33 33 33 33 33 32 32 31 30 29 28 26 26 26 27 28 28 28 29 29 30 31 33 36 40 44 48 52 57 63 68 72 74 75 75 75 75 75 75 76 77 77 78 78 79 79 78 78 78 78 78 78 78 79 79 80 81 83 84 86 88 89 90 90 88 89 91 94 95 95 95 92 89 87 88 87
30 31 31 31 32 32 32 32 32 33 33 32 33 33 33 32 32 31 30 29 28 27 27 27 27 28 28 28 28 29 29 30 32 35 39 43 47 51 56 62 68 72 74 75 76 76 76 75 76 76 76 77 78 78 78 79 78 78 78 78 78 78 78 79 80 80 81 83 84 84 86 87 87 87 87 88 89 91 93 95 92 89 89 91 91
30 30 31 31 32 32 32 33 33 33 33 33 33 32 32 32 32 32 31 30 29 28 28 28 28 28 29 29 29 29 29 29 30 31 34 38 42 46 50 56 62 67 72 74 76 76 76 76 76 76 76 77 77 78 78 79 79 79 78 78 78 78 79 79 80 81 82 82 83 83 84 85 85 86 86 86 86 86 88 91 93 92 91 90 90
32 32 32 33 33 33 33 33 34 34 34 33 33 33 33 33 33 32 32 31 30 29 28 28 29 29 30 30 30 30 30 30 30 31 32 34 37 40 45 49 54 60 66 71 74 76 77 77 77 77 77 77 77 77 78 78 79 78 78 78 78 79 79 80 80 81 82 82 82 83 83 84 84 85 86 86 85 84 84 86 90 94 94 92 90
33 33 33 33 33 33 33 33 33 33 33 33 33 33 33 33 33 33 33 33 32 31 29 29 29 30 31 31 32 32 32 32 32 32 32 33 35 37 40 43 48 52 58 63 68 72 75 77 77 78 78 78 78 78 78 78 78 78 78 77 77 78 79 80 81 81 81 82 82 83 83 83 84 85 85 85 85 85 84 83 85 89 94 94 90
32 32 31 31 31 31 31 30 30 30 30 30 31 31 31 31 31 32 32 33 33 33 32 31 30 30 31 31 33 34 34 35 35 35 34 35 35 36 38 40 43 46 50 55 60 65 69 72 75 77 78 79 79 79 79 79 79 78 77 77 77 77 78 79 80 80 81 81 82 83 83 83 84 84 85 85 85 85 85 84 83 84 88 92 92
31 30 30 30 30 29 29 29 28 28 28 28 28 28 28 29 29 30 30 31 32 33 33 33 32 32 32 32 32 33 35 36 37 37 37 38 38 38 39 40 41 43 46 49 53 57 60 64 68 71 74 76 77 78 79 79 79 79 78 78 78 77 78 78 78 79 80 81 81 82 82 83 84 84 85 85 86 85 85 85 84 83 83 88 92
31 31 30 30 30 30 29 29 28 28 28 27 27 27 27 27 28 28 29 29 30 31 32 33 33 33 33 33 34 34 34 36 37 38 39 40 41 41 42 42 42 43 44 46 49 51 54 57 60 64 67 70 72 74 75 76 77 77 77 77 77 77 77 77 77 78 79 79 80 81 81 82 82 83 84 84 85 85 85 85 85 84 83 85 90
32 32 32 32 31 31 30 30 30 30 29 28 28 27 27 27 27 28 28 29 29 30 31 32 33 33 34 35 35 35 36 36 37 38 39 41 42 43 44 45 45 45 46 46 48 49 51 53 56 59 61 64 66 68 69 71 72 73 73 74 75 75 75 75 75 76 77 77 78 79 80 80 81 81 82 83 84 85 86 86 86 86 85 85 88
33 33 33 33 32 32 31 31 31 30 30 29 29 29 29 28 28 28 28 28 29 29 30 31 32 33 34 35 35 36 37 37 38 38 39 40 41 43 45 46 47 48 48 49 49 49 50 52 53 56 58 60 62 63 65 66 67 68 69 70 71 71 72 72 72 73 73 74 76 77 77 78 79 80 81 82 83 84 85 86 87 87 87 87 88
34 34 34 34 33 33 32 32 31 31 30 30 30 30 30 30 30 30 30 30 30 30 30 31 31 32 33 34 35 36 37 38 38 39 40 41 42 42 44 45 47 49 50 51 51 52 52 52 53 55 57 59 60 62 63 64 64 65 66 67 68 69 69 70 70 70 71 71 72 74 75 76 77 78 79 80 82 83 84 86 87 87 88 89 89
35 35 35 34 34 33 33 32 32 31 31 31 31 31 31 31 31 32 32 32 32 32 32 32 32 33 33 34 35 36 37 38 38 39 40 41 42 43 44 45 46 48 49 51 52 53 54 55 55 55 56 58 59 60 61 62 63 64 65 66 67 67 68 69 69 68 68 68 69 70 72 73 74 76 77 79 81 82 83 85 86 87 88 89 90
35 35 35 35 34 34 33 33 33 32 32 32 32 32 33 33 33 34 34 34 34 34 35 35 35 35 35 35 35 36 37 37 38 39 40 41 42 43 44 45 46 47 49 50 51 52 54 55 56 57 58 58 59 60 61 62 63 64 65 66 67 67 69 69 69 68 67 68 67 68 69 71 72 73 75 77 79 81 82 83 85 87 88 89 90
35 36 36 36 35 34 34 33 33 33 33 33 33 33 34 34 35 35 36 36 36 36 36 36 36 36 37 37 37 37 37 38 38 39 40 41 42 43 44 45 46 47 48 49 50 51 53 54 55 57 58 59 60 61 61 62 62 63 65 66 66 68 69 71 70 69 68 68 68 67 67 68 70 71 73 75 77 79 81 82 84 85 87 88 90
35 36 37 36 36 35 34 34 33 33 34 34 34 35 35 36 36 37 37 38 38 38 38 38 38 38 38 38 38 39 39 39 39 39 40 41 41 42 43 45 45 46 47 48 50 51 52 53 54 55 57 58 60 61 62 63 63 64 65 66 67 68 69 71 72 71 70 70 69 68 67 67 68 69 71 73 75 77 79 81 82 84 85 87 88
37 37 38 38 37 36 35 34 34 34 34 35 35 36 37 38 39 39 40 39 40 40 40 40 39 39 39 39 40 40 40 40 40 40 41 41 42 42 43 44 45 46 47 48 49 50 51 52 53 54 55 57 58 59 61 62 63 65 66 67 67 69 70 71 72 73 72 71 70 69 69 68 68 69 70 71 73 75 76 78 80 82 83 85 87
38 39 39 39 38 37 37 36 36 37 37 38 38 39 39 40 41 42 43 43 43 43 43 43 42 41 41 40 40 41 41 41 41 41 41 42 42 43 43 44 44 45 46 47 48 49 50 51 52 53 54 55 57 58 59 61 62 64 65 67 68 69 71 72 73 73 74 72 71 70 70 71 71 70 70 71 72 73 75 76 78 80 82 83 85
Wind_Direction
260 257 255 254 254 253 252 250 249 248 247 245 243 242 242 245 248 248 247 245 245 245 244 244 245 245 244 244 243 243 243 242 242 241 242 242 243 243 242 242 244 245 245 242 237 235 235 236 234 230 229 233 240 245 247 248 251 253 252 250 246 242 240 242 242 243 245 246 246 245 246 247 248 250 253 255 256 256 256 255 255 255 254 253 253
262 261 259 258 256 256 255 254 252 251 250 248 246 244 243 245 247 248 247 245 245 245 245 245 246 246 245 244 243 243 244 246 247 246 245 244 244 244 245 245 245 245 245 244 238 234 234 234 233 231 229 230 234 240 244 244 244 248 250 251 251 248 246 245 245 245 246 248 247 245 245 246 246 246 247 250 253 254 255 257 258 258 258 257 256
265 263 261 260 258 257 257 256 256 255 253 252 251 248 247 246 247 248 246 245 244 243 243 244 246 246 246 245 244 244 244 246 248 249 249 248 246 246 246 247 247 245 245 243 238 233 232 233 234 233 232 232 232 234 238 238 238 242 246 249 251 251 251 253 252 249 248 250 251 249 246 246 245 244 243 243 247 250 252 254 257 259 260 260 259
266 265 264 263 261 260 258 257 256 256 255 254 253 252 250 249 249 249 247 244 242 242 242 242 243 244 244 244 245 245 246 247 248 249 249 248 247 246 245 246 247 245 244 242 237 232 230 231 233 234 235 234 232 234 237 237 238 241 243 245 248 250 251 253 255 255 252 251 252 252 251 249 247 244 241 240 242 247 251 253 254 257 259 261 262
267 267 266 265 264 263 261 258 256 255 255 254 253 253 252 251 251 250 250 247 244 241 240 241 242 243 243 243 243 244 245 246 246 246 246 246 245 244 243 243 244 244 242 240 237 233 230 229 229 232 234 234 233 236 238 237 238 240 241 242 245 249 252 253 254 255 254 251 250 250 251 251 250 248 244 241 242 244 249 256 257 257 260 262 264
272 271 269 268 266 264 263 261 259 257 255 255 254 253 253 252 252 252 252 251 248 245 242 240 241 242 242 241 241 242 243 244 245 244 243 243 243 242 241 240 241 242 242 240 237 235 233 231 228 229 232 234 236 238 238 237 237 237 237 238 238 239 247 252 254 254 253 251 249 248 249 249 250 250 248 246 245 241 240 251 259 258 257 261 264
275 275 275 275 272 269 265 263 261 259 258 256 255 255 254 253 252 252 252 252 252 250 246 243 241 240 241 240 239 239 239 240 241 242 242 242 242 242 241 241 240 240 240 240 237 235 235 234 230 228 229 232 238 241 240 238 237 236 236 237 235 235 242 251 255 253 251 251 249 247 248 247 247 248 249 249 248 241 233 237 251 257 256 255 260
274 275 276 276 275 273 270 266 263 261 259 258 257 256 255 254 253 252 252 252 253 252 251 248 244 242 240 239 239 238 236 234 235 237 238 240 241 242 242 241 240 240 240 239 237 235 235 235 232 229 229 231 235 240 241 239 238 238 237 235 235 238 243 249 253 253 251 251 250 249 248 248 247 247 248 248 249 245 237 232 240 250 253 251 254
273 274 274 273 273 272 270 268 265 263 261 259 258 256 255 255 254 253 252 252 252 252 252 251 249 246 243 240 238 237 237 234 232 232 233 235 237 239 240 239 238 239 240 238 236 234 234 234 233 231 232 234 236 237 238 239 238 239 239 238 236 238 240 242 247 252 252 249 249 250 250 249 248 247 247 247 247 246 244 240 240 245 249 249 252
275 275 274 273 271 269 268 266 265 263 261 260 259 258 256 255 255 254 253 252 251 251 252 252 251 249 247 244 240 238 237 236 235 232 231 232 234 235 237 237 237 237 238 238 236 234 233 233 232 231 232 235 236 235 234 235 236 238 239 240 237 235 236 237 242 250 251 248 247 248 248 247 248 248 247 246 246 247 248 247 246 246 246 248 251
278 276 275 273 271 269 267 265 264 263 261 260 259 259 258 258 257 255 254 252 251 250 250 251 251 250 249 247 244 241 239 238 238 236 233 231 232 233 234 235 235 235 236 235 234 234 234 233 232 232 232 233 234 233 231 230 232 235 237 238 237 236 236 237 240 247 250 248 246 246 246 246 246 247 247 246 246 246 247 248 249 250 249 249 249
280 279 277 275 273 271 269 267 266 264 262 260 259 258 257 258 259 258 256 254 252 250 249 249 250 250 249 248 246 244 242 240 241 241 238 234 232 232 232 232 233 232 233 233 233 232 232 232 232 232 233 234 234 233 231 229 229 232 235 236 235 235 237 238 240 244 247 246 244 244 245 245 244 244 246 247 246 247 249 249 249 251 251 249 247
281 280 278 277 275 274 272 271 269 267 265 263 261 259 258 258 259 259 258 257 254 252 249 248 248 248 248 248 247 246 244 242 242 244 243 241 237 234 232 231 230 230 230 231 232 231 229 229 230 230 231 234 235 233 232 230 229 229 230 232 232 233 235 237 239 240 241 243 244 244 244 243 242 241 243 245 246 246 247 250 251 250 250 249 248
281 280 279 277 276 275 273 272 270 269 267 265 263 262 260 260 259 259 258 257 256 254 252 249 248 247 247 247 247 246 244 243 242 243 244 245 243 240 237 233 232 230 229 229 230 231 229 228 229 230 229 231 234 234 233 232 231 230 229 230 232 233 235 237 239 239 239 241 243 244 244 243 241 240 240 242 244 243 243 247 251 251 249 247 248
282 281 280 279 277 276 274 273 271 270 268 267 265 263 261 260 259 259 258 258 257 256 254 252 249 248 247 246 246 245 244 243 242 242 243 244 245 245 242 238 235 234 232 230 229 229 229 229 229 229 229 228 230 234 235 233 232 231 230 230 231 234 236 237 239 240 242 242 243 244 244 243 241 240 239 239 241 243 243 243 246 248 248 247 247
283 282 281 280 279 278 276 275 273 271 269 268 267 265 263 261 259 258 257 257 257 256 255 254 251 249 248 247 246 245 244 243 242 241 242 243 244 245 244 242 239 237 236 234 231 229 228 229 228 228 229 227 227 231 235 234 233 233 232 230 231 232 235 236 237 239 241 243 245 246 245 244 242 241 240 239 238 241 243 242 242 245 247 248 248
284 283 282 281 280 278 277 276 274 273 271 270 268 267 266 264 262 259 257 256 256 256 255 255 253 251 248 247 246 246 245 244 242 241 241 241 243 244 244 243 241 240 238 237 235 231 229 228 228 227 228 227 227 230 233 234 234 234 234 234 233 233 235 236 237 238 239 242 245 246 246 246 245 244 242 239 237 238 240 241 243 245 246 247 248
283 282 281 280 279 278 277 276 274 273 272 270 269 268 266 265 263 262 260 257 256 255 254 254 254 252 250 248 246 245 245 244 243 242 241 241 241 242 243 243 242 241 239 238 238 236 232 230 229 228 227 227 228 231 234 236 237 236 236 237 238 237 237 238 240 241 241 241 241 242 245 247 247 246 244 241 238 237 238 240 242 245 245 246 247
283 282 281 279 278 277 276 275 274 273 272 270 269 268 267 266 264 263 261 259 257 255 254 253 253 253 251 250 248 246 245 244 244 243 242 241 241 241 242 242 243 242 241 239 239 238 236 233 231 230 229 229 229 231 234 237 239 239 238 238 240 240 238 238 240 242 243 242 240 241 243 245 246 244 242 242 241 239 238 239 241 244 245 245 246
281 281 280 279 278 277 275 274 273 272 271 270 269 268 267 265 265 263 262 260 259 257 256 255 253 252 251 250 249 248 246 244 243 242 242 242 242 242 242 242 242 242 242 241 240 239 238 237 235 233 232 231 232 232 233 235 238 240 239 238 240 240 238 237 239 242 243 243 242 242 242 243 245 245 244 245 246 244 242 240 241 243 244 245 246
281 280 279 279 278 277 276 275 273 272 271 270 269 267 266 265 264 263 262 261 260 259 258 256 255 253 251 250 249 249 248 246 244 242 241 241 241 242 242 242 242 242 242 241 241 240 239 238 238 237 235 234 234 233 233 234 236 239 239 238 239 240 238 237 239 241 243 244 244 243 243 242 243 246 249 249 249 248 246 243 242 242 242 244 245
281 280 280 279 278 278 277 276 275 274 273 271 270 269 267 266 265 263 262 262 261 260 259 257 256 255 254 251 250 249 249 249 247 244 242 240 240 240 241 242 243 243 242 242 241 241 240 239 239 239 239 238 237 235 234 234 235 238 239 239 239 239 237 237 239 241 243 245 245 246 245 244 244 246 249 250 249 248 247 246 244 244 243 243 244
282 281 280 279 279 278 277 277 276 276 275 274 273 272 270 269 268 266 265 264 263 262 260 258 257 256 255 254 252 250 249 249 249 247 245 242 239 238 239 240 242 243 243 243 242 242 241 240 240 240 240 240 239 238 236 235 235 237 239 240 239 239 237 237 238 240 242 244 246 247 247 246 246 246 247 248 248 249 248 248 247 247 246 245 245
282 281 280 280 279 278 277 277 277 276 276 275 275 274 273 272 271 270 268 267 265 264 262 261 259 257 255 254 252 251 250 249 248 248 247 246 243 240 238 239 240 241 242 243 243 243 242 241 241 240 240 241 241 240 239 237 236 237 239 240 240 240 239 238 239 240 242 243 245 247 247 247 247 247 246 246 248 249 250 250 250 250 250 249 249
283 282 281 280 279 279 278 277 277 276 276 276 275 275 274 274 273 272 270 268 266 265 264 262 261 259 257 254 252 250 249 248 247 247 246 247 246 244 241 239 239 239 240 241 242 243 243 243 242 241 241 241 241 241 241 240 238 238 238 239 240 240 240 240 240 241 242 243 245 246 247 247 248 249 249 249 249 250 251 251 251 252 253 252 252
285 284 283 282 281 281 280 279 278 277 276 276 275 275 274 274 273 272 271 269 268 266 265 263 262 260 258 256 253 251 248 247 246 246 245 245 245 245 243 241 240 239 239 240 241 242 242 243 243 242 242 241 241 241 241 241 240 239 239 239 240 240 241 241 241 242 243 244 245 246 247 247 248 249 251 252 252 252 253 253 253 254 254 254 253
286 285 284 284 283 282 281 280 279 278 277 276 275 274 274 274 273 272 271 270 268 267 265 264 262 261 259 257 254 252 249 246 245 244 244 243 243 243 243 242 241 241 240 240 240 240 241 242 242 242 242 242 242 242 242 242 241 241 240 240 240 240 240 241 242 242 243 244 245 246 247 248 248 249 250 252 253 254 254 254 254 254 254 254 254
287 286 286 285 284 283 282 281 280 279 278 277 276 275 274 274 274 273 272 271 270 269 267 265 263 262 260 258 255 252 250 247 244 243 242 242 242 242 242 241 241 241 241 240 240 240 240 241 242 242 242 242 242 243 243 243 243 243 242 242 241 241 240 240 241 242 243 244 245 245 246 247 248 248 249 249 250 252 252 252 252 253 254 254 254
289 288 288 287 286 285 284 283 282 281 280 279 278 277 276 276 275 275 274 274 273 272 270 268 266 263 261 259 256 253 250 247 245 243 241 240 240 240 240 240 240 240 240 240 241 241 241 241 242 242 242 242 242 242 243 243 244 244 243 243 242 242 242 241 241 241 242 243 244 245 246 246 247 247 248 248 248 248 249 248 248 249 250 250 249
292 292 291 291 290 289 288 286 285 284 283 281 280 279 279 279 278 277 277 276 276 275 273 272 270 266 263 260 258 254 251 248 245 243 241 239 239 239 239 239 239 239 239 240 240 241 241 241 241 242 242 242 242 242 242 243 243 243 243 243 243 243 243 242 242 242 242 243 244 244 245 245 246 246 246 246 246 247 247 245 244 243 244 245 244
297 295 294 293 292 291 290 289 288 287 285 283 282 280 280 280 281 281 281 281 280 278 276 275 273 270 266 262 259 256 253 249 245 243 241 239 238 238 238 238 238 238 239 239 239 240 241 241 241 241 242 242 242 242 242 242 243 243 243 243 243 243 243 243 243 243 243 244 245 245 245 245 245 244 244 244 245 246 247 246 243 241 241 243 244
300 298 297 295 294 292 291 291 290 288 287 286 285 283 282 281 281 282 283 284 284 283 281 278 276 274 270 266 261 258 254 251 247 243 241 239 237 237 237 237 237 237 238 238 239 239 240 241 241 241 242 242 242 242 242 242 242 242 242 243 243 243 243 243 243 243 243 243 244 245 245 245 244 244 244 244 244 244 245 245 243 241 241 242 244
302 300 298 297 296 294 293 291 290 288 286 285 284 283 282 281 281 281 283 284 286 287 286 284 281 278 275 271 265 259 255 252 249 245 241 239 237 236 236 236 236 237 237 238 238 239 239 240 241 241 242 242 242 242 242 242 242 242 242 242 242 243 243 243 242 242 242 242 243 244 244 244 244 243 243 243 243 243 243 243 242 240 239 240 242
302 301 300 298 297 296 295 294 292 290 289 287 285 284 282 281 281 280 280 281 282 285 287 287 285 283 280 276 271 264 258 253 250 247 243 240 238 236 235 235 235 236 237 237 238 238 239 240 240 241 242 242 243 243 242 242 242 242 242 242 242 242 242 242 242 241 241 241 241 242 243 244 245 244 242 242 241 242 241 240 239 238 236 237 238
304 303 302 302 301 299 298 297 296 294 293 291 289 288 286 284 283 282 280 279 279 280 282 284 285 285 283 281 277 271 264 257 251 248 246 243 240 237 236 235 235 236 236 237 238 239 239 239 240 241 242 242 243 243 243 243 243 243 242 242 242 242 242 242 242 241 241 241 241 241 242 243 244 244 244 242 241 241 241 240 238 236 235 235 235
307 307 306 305 303 302 301 300 299 297 296 294 293 291 290 288 286 284 283 281 279 278 277 278 279 281 281 281 279 276 271 264 257 251 248 245 242 240 238 236 236 236 236 237 238 239 239 240 240 241 242 243 243 244 244 244 244 244 243 243 242 242 242 242 242 242 241 241 241 241 242 242 242 243 244 243 242 240 240 239 238 236 235 235 234
311 310 308 307 305 304 303 302 300 299 298 297 295 294 293 291 290 288 286 283 281 278 276 274 274 274 275 276 276 275 273 270 264 258 252 248 245 242 240 238 237 236 237 237 238 239 240 240 241 241 242 243 243 244 245 245 244 244 244 243 243 242 242 242 242 242 242 242 241 241 242 242 242 242 242 243 242 241 240 239 238 236 235 235 235
313 312 310 308 307 305 304 303 301 300 299 297 296 295 294 292 291 290 289 287 284 281 278 275 272 271 270 271 271 271 271 270 267 264 259 254 250 246 243 241 239 238 237 238 238 239 240 241 242 242 242 243 243 244 245 245 245 245 244 244 244 243 243 242 242 241 242 242 242 242 242 242 242 242 242 242 242 242 241 239 238 237 236 235 235
315 313 312 310 309 307 306 304 303 301 300 298 297 295 294 292 291 290 289 287 286 284 281 278 274 271 268 267 267 267 267 266 266 265 262 259 255 251 248 245 242 241 240 239 239 239 240 241 242 243 244 244 245 245 245 245 245 245 245 244 244 244 244 244 243 242 242 242 242 242 242 242 242 242 242 242 242 241 241 240 238 237 237 236 235
317 316 315 314 313 311 310 309 307 305 304 302 300 298 296 294 292 290 289 287 286 285 283 280 277 274 271 268 265 264 263 263 263 262 261 260 258 255 252 249 246 244 242 241 241 241 241 241 242 243 244 245 245 246 246 247 247 247 246 246 245 245 244 245 244 244 243 243 242 242 242 241 241 242 242 242 242 241 241 241 239 238 237 235 234
321 321 320 319 318 317 316 314 312 311 309 307 305 303 301 299 296 294 292 289 287 285 284 281 278 276 273 270 268 265 263 261 260 260 259 259 258 257 255 253 250 247 245 243 243 243 243 243 243 243 244 245 246 246 247 248 248 248 248 248 247 246 245 245 245 245 244 244 243 243 243 242 241 241 241 242 242 241 241 240 240 238 236 235 233
327 326 326 324 323 322 321 320 318 317 315 313 311 309 307 305 302 300 297 294 291 289 286 284 281 278 275 273 270 268 265 263 261 259 258 257 257 256 256 254 253 251 248 246 244 243 243 243 244 244 244 245 245 246 247 248 248 249 249 249 248 248 247 246 246 245 245 245 244 243 243 242 242 241 241 241 241 241 241 240 240 238 236 234 233
331 330 328 327 326 325 324 323 322 321 319 318 316 315 312 310 308 305 302 299 296 293 290 288 285 282 279 276 273 270 268 265 263 261 259 257 256 256 255 255 254 253 252 250 247 245 243 243 243 244 244 244 245 245 246 247 248 249 249 249 249 249 248 247 247 246 245 245 244 244 243 242 242 241 240 240 240 240 240 240 239 238 237 236 234
333 331 329 328 326 325 324 323 322 321 320 319 319 317 316 314 312 309 306 303 299 296 293 291 288 286 283 280 278 274 271 269 266 264 262 260 258 256 255 255 255 254 254 253 251 249 246 244 243 243 244 244 245 245 245 246 247 248 248 249 249 249 248 248 247 246 246 245 245 244 243 242 242 241 240 240 239 239 239 239 239 238 237 236 235
333 332 330 328 326 324 323 322 321 320 319 319 318 317 316 315 313 312 309 306 303 300 296 293 290 287 285 283 280 278 276 273 270 267 265 263 261 259 257 256 255 254 254 254 253 252 251 248 246 244 243 244 244 245 245 245 246 247 248 249 249 249 249 248 248 247 246 245 245 244 243 242 242 241 240 240 239 238 238 238 238 238 237 237 236
334 332 330 327 325 324 322 321 320 319 319 318 318 317 316 315 313 312 310 309 306 304 301 298 294 291 287 284 282 279 277 276 273 271 269 266 264 262 260 258 257 256 255 254 253 253 252 252 250 249 247 245 245 244 245 245 245 246 247 248 249 249 249 249 249 248 247 246 245 244 244 243 242 241 240 240 239 238 238 238 238 238 238 237 237
333 332 330 327 325 323 321 320 319 319 318 317 317 316 315 314 312 311 310 308 307 305 303 301 298 295 292 289 286 282 279 277 275 273 271 269 267 265 263 261 259 257 256 255 254 253 252 252 252 251 250 249 248 246 245 245 245 245 246 247 248 249 250 250 250 249 249 248 246 244 244 243 242 241 240 240 240 239 238 238 237 237 237 237 237
332 331 330 327 324 322 320 319 318 317 316 316 315 314 313 312 311 310 310 308 307 305 303 301 299 297 294 292 289 286 283 280 278 275 272 270 269 267 266 264 262 260 258 257 255 254 253 252 251 251 251 251 250 249 248 246 246 245 246 246 246 247 249 250 250 249 249 249 248 246 244 244 243 242 241 241 240 240 239 239 238 237 237 237 237
330 330 329 327 324 322 320 318 317 316 315 314 313 312 312 311 310 309 309 308 307 305 303 301 299 297 295 293 290 288 286 284 281 278 276 273 270 268 267 265 264 263 261 259 258 256 255 253 252 251 250 250 250 250 250 249 248 246 246 246 246 246 247 248 249 249 249 248 248 248 246 245 244 243 243 242 241 240 240 240 239 238 238 237 237
328 328 328 326 324 322 320 318 317 315 314 313 313 312 312 312 311 310 309 308 306 304 303 301 299 297 295 293 291 289 287 285 283 281 279 276 274 271 269 267 265 264 263 261 260 259 257 256 254 252 251 250 249 249 249 249 249 248 247 247 246 246 246 247 248 249 248 248 247 247 247 246 245 244 243 243 242 241 241 240 240 239 239 238 238
326 327 327 326 324 323 321 320 319 318 317 316 315 314 313 312 311 310 309 308 306 305 303 301 299 296 294 293 291 289 287 285 283 282 280 278 277 275 273 270 268 266 264 263 262 261 260 258 257 255 253 252 250 249 248 248 248 248 249 248 247 247 247 247 247 248 248 248 246 246 246 246 246 245 244 244 243 242 242 241 241 240 240 239 238
Height
10879 10879 10880 10880 10879 10879 10879 10880 10880 10881 10881 10882 10883 10884 10885 10886 10887 10888 10888 10889 10891 10893 10894 10896 10897 10899 10900 10902 10904 10905 10906 10908 10909 10911 10913 10915 10917 10918 10920 10922 10923 10924 10926 10928 10930 10932 10934 10937 10939 10941 10943 10944 10943 10943 10944 10945 10945 10944 10944 10944 10945 10945 10946 10947 10949 10950 10950 10950 10950 10951 10952 10953 10954 10956 10957 10958 10959 10960 10961 10962 10962 10962 10963 10964 10965
10874 10874 10874 10875 10874 10874 10875 10875 10875 10876 10876 10877 10878 10879 10880 10880 10881 10882 10882 10883 10884 10886 10887 10889 10890 10892 10893 10895 10897 10899 10900 10901 10902 10904 10906 10909 10911 10912 10913 10915 10917 10918 10920 10922 10924 10926 10928 10931 10933 10936 10937 10937 10938 10940 10941 10942 10942 10941 10940 10940 10941 10942 10943 10944 10945 10947 10948 10947 10948 10949 10949 10950 10951 10952 10953 10954 10955 10957 10958 10959 10959 10959 10960 10961 10962
10869 10869 10869 10869 10869 10869 10870 10870 10870 10870 10870 10870 10871 10871 10872 10873 10874 10875 10876 10877 10877 10879 10880 10882 10884 10885 10886 10888 10890 10892 10893 10894 10895 10897 10899 10901 10904 10905 10907 10908 10910 10911 10913 10916 10918 10920 10922 10925 10928 10930 10931 10931 10933 10935 10934 10935 10936 10935 10935 10937 10937 10939 10940 10941 10942 10943 10945 10945 10945 10946 10947 10947 10948 10949 10950 10950 10951 10952 10954 10955 10956 10956 10956 10958 10958
10865 10864 10864 10864 10864 10864 10864 10864 10864 10864 10863 10863 10863 10863 10864 10865 10865 10866 10868 10869 10870 10871 10873 10874 10876 10878 10879 10881 10882 10884 10886 10887 10888 10890 10891 10893 10895 10898 10900 10901 10903 10904 10906 10908 10911 10914 10916 10919 10922 10924 10926 10927 10928 10928 10927 10929 10930 10931 10932 10933 10933 10935 10936 10938 10939 10940 10941 10942 10942 10943 10944 10945 10945 10946 10947 10947 10947 10948 10950 10951 10952 10952 10953 10954 10955
10860 10860 10859 10859 10858 10858 10857 10857 10857 10856 10855 10855 10855 10855 10856 10856 10857 10858 10859 10860 10862 10863 10865 10866 10868 10870 10871 10873 10875 10877 10878 10880 10882 10883 10884 10885 10888 10891 10893 10894 10896 10897 10898 10901 10904 10907 10910 10913 10916 10919 10921 10922 10923 10922 10922 10924 10925 10926 10928 10928 10929 10931 10933 10933 10935 10936 10937 10938 10938 10939 10940 10941 10942 10943 10943 10944 10944 10945 10946 10948 10948 10949 10950 10951 10952
10854 10854 10853 10853 10852 10852 10851 10850 10850 10849 10848 10847 10847 10847 10848 10848 10849 10849 10850 10852 10853 10855 10856 10858 10859 10861 10863 10865 10867 10869 10870 10873 10874 10876 10877 10879 10881 10883 10885 10887 10889 10890 10891 10894 10897 10901 10904 10908 10910 10913 10915 10917 10918 10917 10917 10919 10920 10921 10923 10923 10924 10927 10929 10929 10930 10931 10933 10934 10934 10935 10936 10937 10939 10940 10940 10941 10941 10941 10943 10945 10946 10947 10948 10948 10949
10848 10847 10847 10846 10846 10845 10843 10843 10842 10841 10840 10840 10839 10838 10839 10839 10840 10841 10842 10843 10844 10846 10847 10849 10851 10852 10854 10856 10858 10860 10862 10864 10866 10868 10870 10872 10874 10876 10878 10880 10882 10883 10884 10887 10891 10894 10898 10901 10904 10907 10909 10912 10913 10913 10912 10913 10914 10915 10917 10918 10920 10922 10923 10924 10925 10926 10928 10929 10930 10931 10931 10932 10934 10935 10936 10937 10938 10938 10939 10940 10941 10943 10944 10945 10946
10841 10840 10839 10838 10837 10836 10835 10834 10834 10833 10832 10831 10831 10830 10829 10830 10831 10832 10833 10834 10835 10836 10838 10840 10842 10844 10845 10847 10849 10851 10853 10855 10857 10859 10861 10864 10866 10868 10871 10873 10875 10876 10878 10880 10883 10886 10889 10893 10897 10899 10903 10905 10907 10907 10907 10907 10908 10909 10910 10912 10915 10916 10918 10920 10921 10921 10923 10924 10926 10926 10926 10927 10929 10930 10932 10934 10934 10935 10935 10934 10935 10938 10939 10940 10940
10833 10832 10831 10830 10828 10827 10825 10824 10824 10824 10822 10821 10821 10821 10821 10820 10821 10821 10823 10825 10826 10827 10829 10831 10833 10835 10837 10838 10840 10842 10844 10847 10849 10851 10852 10855 10858 10860 10863 10865 10867 10869 10871 10873 10876 10879 10881 10885 10889 10892 10895 10896 10898 10900 10902 10902 10903 10904 10905 10907 10909 10911 10913 10916 10915 10914 10916 10919 10920 10922 10923 10923 10923 10924 10927 10929 10929 10930 10931 10931 10932 10933 10933 10933 10934
10823 10822 10821 10820 10818 10817 10816 10814 10814 10813 10812 10811 10810 10810 10811 10811 10811 10811 10812 10814 10816 10817 10819 10820 10823 10825 10827 10829 10831 10833 10835 10838 10840 10842 10844 10846 10848 10851 10854 10857 10859 10862 10863 10865 10869 10872 10874 10877 10880 10883 10884 10885 10887 10891 10893 10895 10897 10898 10900 10902 10905 10906 10907 10909 10908 10906 10908 10912 10913 10915 10917 10918 10918 10919 10921 10923 10924 10925 10928 10929 10929 10927 10927 10928 10928
10812 10811 10810 10809 10808 10806 10805 10804 10803 10802 10801 10801 10800 10800 10800 10800 10800 10801 10801 10803 10805 10807 10808 10810 10812 10814 10816 10819 10821 10824 10826 10829 10831 10833 10836 10838 10840 10842 10845 10848 10851 10854 10855 10857 10860 10864 10866 10868 10870 10872 10873 10874 10876 10880 10884 10888 10891 10893 10895 10897 10898 10899 10899 10901 10902 10901 10901 10903 10904 10906 10910 10912 10913 10914 10914 10916 10919 10921 10924 10925 10924 10924 10924 10924 10924
10801 10799 10798 10797 10796 10794 10793 10792 10791 10791 10790 10789 10789 10789 10789 10789 10789 10790 10790 10791 10793 10795 10797 10799 10800 10802 10805 10808 10811 10813 10817 10819 10821 10823 10826 10829 10831 10833 10835 10838 10842 10845 10847 10848 10851 10855 10858 10860 10862 10864 10865 10867 10870 10873 10877 10880 10883 10885 10886 10886 10888 10889 10889 10891 10892 10893 10894 10895 10896 10899 10902 10904 10906 10908 10908 10910 10913 10917 10920 10921 10920 10920 10921 10920 10919
10788 10787 10785 10784 10784 10782 10782 10781 10780 10779 10779 10778 10777 10777 10777 10778 10778 10778 10778 10779 10780 10782 10785 10787 10789 10790 10792 10795 10799 10802 10806 10809 10811 10812 10815 10819 10822 10824 10826 10829 10832 10836 10838 10840 10843 10846 10850 10852 10853 10856 10859 10861 10864 10867 10869 10870 10871 10872 10873 10874 10876 10878 10879 10880 10881 10882 10884 10886 10889 10891 10893 10896 10899 10901 10902 10905 10908 10911 10914 10915 10915 10916 10916 10916 10915
10776 10774 10773 10772 10771 10771 10770 10769 10768 10767 10767 10766 10765 10765 10765 10765 10766 10766 10766 10767 10768 10769 10771 10774 10777 10778 10780 10783 10786 10789 10793 10798 10801 10802 10804 10807 10810 10813 10815 10819 10822 10825 10829 10832 10834 10837 10840 10842 10844 10848 10852 10855 10858 10860 10860 10859 10860 10863 10864 10866 10868 10870 10871 10872 10871 10873 10875 10878 10881 10883 10885 10889 10892 10894 10896 10900 10902 10903 10907 10909 10909 10909 10909 10909 10909
10763 10761 10760 10759 10759 10758 10757 10756 10755 10755 10754 10754 10753 10753 10753 10753 10754 10755 10755 10755 10756 10757 10758 10760 10763 10766 10768 10770 10772 10775 10780 10785 10788 10791 10794 10796 10798 10800 10803 10808 10812 10815 10818 10822 10824 10827 10830 10833 10836 10840 10845 10849 10852 10852 10850 10849 10850 10853 10856 10859 10861 10862 10862 10863 10864 10867 10870 10873 10876 10877 10879 10882 10884 10886 10889 10893 10895 10896 10898 10901 10901 10900 10900 10901 10902
10751 10749 10747 10746 10746 10745 10744 10743 10742 10742 10742 10741 10741 10740 10740 10741 10742 10743 10743 10743 10743 10744 10745 10746 10749 10752 10755 10757 10759 10761 10765 10770 10774 10778 10782 10785 10787 10788 10791 10796 10800 10804 10807 10811 10814 10817 10821 10823 10826 10830 10835 10840 10842 10840 10837 10838 10841 10844 10848 10851 10852 10852 10853 10854 10858 10863 10866 10868 10870 10871 10872 10874 10877 10879 10881 10885 10887 10888 10890 10892 10892 10891 10893 10896 10896
10739 10737 10735 10734 10733 10732 10731 10730 10729 10729 10729 10729 10729 10728 10728 10728 10729 10730 10731 10731 10730 10731 10731 10732 10734 10738 10741 10743 10746 10748 10751 10756 10760 10764 10769 10773 10775 10776 10778 10783 10787 10792 10796 10800 10804 10807 10811 10813 10816 10820 10824 10828 10830 10829 10827 10829 10833 10836 10839 10842 10843 10844 10845 10848 10854 10859 10861 10863 10863 10863 10864 10866 10868 10871 10872 10875 10877 10879 10882 10884 10884 10885 10889 10890 10890
10728 10726 10724 10722 10721 10720 10719 10718 10718 10717 10717 10717 10716 10716 10716 10716 10717 10717 10717 10718 10717 10717 10718 10719 10721 10724 10727 10730 10733 10735 10738 10742 10746 10751 10755 10759 10761 10763 10766 10770 10774 10779 10783 10788 10793 10797 10800 10802 10805 10809 10812 10816 10820 10820 10819 10821 10825 10828 10832 10834 10835 10835 10838 10844 10850 10853 10854 10854 10854 10855 10856 10856 10858 10861 10863 10865 10868 10871 10874 10876 10876 10879 10884 10885 10883
10716 10714 10712 10710 10709 10708 10707 10706 10706 10706 10705 10705 10704 10705 10704 10704 10704 10704 10704 10704 10704 10704 10706 10707 10708 10709 10713 10716 10719 10722 10725 10728 10732 10736 10741 10745 10747 10750 10753 10757 10760 10765 10770 10776 10780 10784 10787 10791 10794 10798 10802 10806 10810 10811 10812 10813 10816 10819 10823 10826 10825 10826 10833 10840 10844 10843 10844 10845 10845 10846 10847 10847 10849 10852 10855 10857 10860 10863 10866 10868 10869 10873 10877 10878 10877
10704 10702 10700 10698 10696 10695 10694 10694 10693 10693 10693 10693 10692 10693 10693 10692 10692 10692 10690 10690 10692 10693 10693 10694 10694 10694 10697 10701 10704 10707 10711 10714 10718 10722 10727 10731 10734 10736 10740 10743 10746 10751 10756 10761 10765 10770 10774 10778 10783 10787 10791 10795 10798 10801 10804 10805 10806 10809 10814 10815 10814 10818 10828 10834 10834 10832 10833 10833 10833 10835 10837 10838 10840 10843 10845 10848 10852 10855 10859 10860 10863 10867 10870 10870 10871
10692 10689 10687 10685 10683 10681 10680 10680 10680 10679 10679 10679 10679 10679 10679 10679 10679 10679 10677 10677 10679 10681 10681 10681 10679 10679 10682 10687 10691 10694 10696 10699 10704 10709 10714 10719 10722 10724 10726 10729 10733 10737 10741 10745 10750 10755 10760 10766 10770 10775 10780 10783 10786 10790 10793 10795 10797 10798 10801 10804 10805 10810 10819 10823 10822 10821 10821 10819 10820 10824 10827 10829 10832 10834 10836 10840 10843 10846 10850 10852 10855 10859 10862 10863 10864
10679 10677 10675 10672 10670 10668 10666 10665 10665 10664 10664 10665 10665 10665 10665 10665 10665 10666 10665 10665 10666 10667 10667 10666 10665 10664 10667 10673 10679 10681 10682 10685 10690 10695 10700 10705 10708 10711 10712 10715 10719 10723 10726 10730 10735 10740 10746 10751 10756 10762 10767 10770 10773 10778 10781 10784 10786 10787 10788 10791 10795 10800 10808 10811 10811 10810 10809 10808 10810 10813 10814 10818 10823 10826 10827 10830 10834 10837 10841 10843 10847 10850 10853 10854 10855
10666 10664 10661 10659 10657 10655 10653 10651 10650 10649 10649 10649 10649 10649 10649 10650 10651 10652 10652 10653 10652 10652 10651 10650 10650 10652 10655 10660 10665 10667 10669 10672 10676 10680 10685 10689 10694 10697 10700 10703 10707 10710 10713 10717 10721 10725 10730 10736 10742 10747 10751 10754 10758 10764 10768 10771 10774 10775 10776 10779 10783 10788 10795 10799 10800 10800 10800 10800 10802 10802 10803 10807 10813 10816 10818 10822 10826 10829 10832 10834 10837 10840 10843 10845 10846
10652 10650 10648 10646 10644 10642 10639 10638 10636 10635 10634 10634 10633 10633 10634 10634 10636 10637 10637 10638 10637 10635 10634 10634 10636 10639 10642 10646 10649 10653 10656 10659 10662 10666 10670 10674 10678 10684 10689 10692 10695 10698 10701 10703 10706 10710 10716 10721 10726 10731 10735 10739 10743 10748 10753 10757 10761 10764 10765 10767 10770 10776 10782 10786 10787 10789 10791 10793 10793 10793 10793 10797 10802 10806 10809 10814 10818 10821 10823 10824 10827 10830 10833 10836 10838
10638 10636 10634 10632 10630 10628 10626 10625 10623 10622 10621 10620 10619 10618 10618 10619 10620 10621 10621 10621 10620 10620 10620 10619 10621 10624 10627 10630 10634 10638 10642 10645 10648 10652 10656 10660 10664 10670 10675 10679 10683 10686 10688 10690 10693 10697 10702 10707 10711 10716 10721 10725 10729 10732 10737 10741 10746 10750 10752 10754 10758 10763 10768 10771 10774 10777 10780 10782 10783 10783 10785 10788 10792 10797 10801 10805 10810 10813 10814 10815 10819 10822 10826 10828 10829
10625 10623 10621 10619 10617 10616 10614 10612 10611 10610 10609 10608 10607 10606 10605 10605 10606 10605 10605 10604 10605 10605 10605 10605 10606 10608 10611 10615 10619 10623 10627 10631 10634 10638 10642 10646 10650 10654 10660 10665 10670 10673 10675 10677 10680 10684 10688 10692 10696 10701 10706 10710 10714 10718 10722 10726 10731 10735 10738 10741 10745 10749 10753 10757 10760 10764 10767 10769 10771 10773 10774 10778 10784 10789 10792 10797 10802 10804 10805 10808 10813 10816 10818 10819 10820
10614 10612 10610 10609 10607 10605 10604 10602 10601 10600 10599 10598 10597 10596 10595 10594 10594 10593 10591 10591 10591 10592 10591 10591 10592 10594 10597 10600 10603 10607 10611 10616 10620 10623 10628 10632 10636 10640 10645 10651 10655 10659 10662 10664 10667 10671 10674 10678 10681 10686 10690 10695 10699 10703 10707 10711 10716 10720 10724 10728 10731 10735 10739 10743 10746 10749 10752 10754 10758 10761 10764 10769 10776 10780 10783 10787 10792 10794 10797 10801 10804 10807 10808 10810 10811
10605 10603 10602 10600 10599 10597 10595 10594 10593 10592 10591 10590 10588 10587 10587 10586 10585 10583 10581 10580 10580 10580 10580 10580 10580 10582 10583 10585 10587 10591 10595 10600 10605 10609 10614 10618 10622 10627 10631 10636 10641 10644 10648 10651 10654 10658 10661 10664 10667 10672 10677 10681 10686 10690 10693 10697 10702 10706 10710 10714 10717 10720 10724 10727 10730 10734 10736 10739 10744 10749 10753 10758 10763 10769 10773 10777 10781 10784 10787 10791 10795 10796 10797 10797 10799
10598 10596 10595 10593 10592 10590 10589 10587 10586 10585 10584 10583 10582 10581 10580 10579 10578 10576 10573 10572 10571 10570 10570 10569 10570 10571 10571 10571 10573 10577 10581 10585 10590 10595 10600 10604 10609 10613 10617 10622 10626 10631 10635 10638 10641 10645 10648 10652 10655 10659 10663 10668 10673 10677 10680 10683 10687 10691 10694 10698 10702 10705 10709 10712 10716 10718 10721 10725 10729 10735 10740 10744 10750 10758 10763 10765 10767 10770 10773 10778 10783 10784 10783 10784 10786
10593 10591 10589 10587 10586 10584 10583 10582 10580 10579 10578 10577 10576 10575 10573 10572 10571 10569 10567 10565 10564 10563 10562 10561 10560 10561 10561 10561 10561 10564 10568 10572 10576 10581 10586 10591 10595 10599 10603 10608 10613 10617 10622 10626 10629 10632 10636 10640 10643 10646 10650 10654 10659 10663 10666 10670 10673 10676 10679 10683 10687 10691 10695 10698 10701 10705 10709 10714 10717 10721 10725 10730 10737 10745 10748 10749 10750 10753 10754 10759 10766 10769 10770 10771 10773
10588 10586 10584 10582 10581 10579 10577 10576 10575 10573 10572 10571 10570 10569 10568 10567 10565 10563 10561 10559 10558 10556 10555 10554 10552 10551 10552 10552 10553 10554 10557 10560 10564 10567 10572 10577 10582 10586 10590 10595 10600 10604 10609 10613 10617 10620 10623 10627 10630 10634 10638 10641 10645 10649 10653 10657 10660 10663 10666 10669 10673 10677 10681 10685 10689 10694 10700 10704 10704 10705 10709 10714 10720 10726 10731 10732 10735 10736 10738 10744 10751 10756 10758 10761 10761
10583 10581 10580 10578 10576 10574 10572 10571 10569 10568 10566 10565 10564 10562 10562 10561 10560 10558 10556 10554 10552 10550 10549 10548 10546 10544 10543 10544 10545 10546 10547 10550 10553 10556 10560 10564 10569 10573 10577 10582 10587 10592 10596 10600 10604 10607 10611 10614 10618 10621 10625 10628 10632 10636 10640 10643 10646 10649 10652 10655 10659 10664 10668 10672 10677 10682 10686 10688 10687 10687 10690 10695 10701 10707 10712 10716 10719 10720 10723 10730 10738 10743 10745 10747 10748
10579 10577 10575 10573 10571 10569 10567 10566 10564 10562 10561 10559 10558 10557 10556 10555 10554 10553 10552 10550 10547 10545 10543 10542 10540 10538 10537 10537 10538 10539 10540 10541 10543 10546 10549 10552 10557 10561 10565 10570 10575 10579 10583 10587 10591 10595 10599 10602 10605 10609 10612 10615 10619 10622 10626 10630 10633 10636 10640 10643 10646 10651 10654 10658 10663 10667 10669 10670 10671 10672 10673 10677 10683 10689 10695 10700 10702 10705 10709 10717 10724 10728 10730 10732 10735
10574 10572 10570 10568 10567 10565 10563 10561 10559 10557 10555 10554 10552 10551 10550 10549 10548 10548 10547 10546 10544 10541 10539 10537 10535 10534 10532 10531 10531 10532 10533 10534 10535 10536 10539 10542 10546 10550 10554 10558 10562 10567 10571 10575 10579 10583 10587 10590 10593 10596 10599 10602 10605 10609 10612 10616 10620 10623 10627 10630 10634 10638 10641 10644 10648 10652 10654 10655 10657 10658 10660 10664 10669 10674 10679 10683 10687 10691 10696 10701 10707 10712 10715 10718 10721
10570 10568 10566 10564 10562 10559 10557 10555 10553 10551 10550 10548 10546 10545 10544 10543 10542 10542 10541 10541 10540 10538 10536 10533 10531 10530 10528 10526 10525 10525 10526 10527 10528 10529 10531 10533 10536 10540 10543 10547 10551 10555 10559 10563 10567 10571 10575 10578 10581 10584 10587 10590 10593 10595 10599 10603 10607 10611 10614 10618 10622 10625 10628 10631 10634 10637 10640 10641 10643 10645 10648 10651 10655 10660 10663 10666 10671 10676 10679 10683 10690 10697 10700 10702 10704
10567 10564 10562 10560 10557 10555 10553 10551 10548 10546 10544 10542 10541 10539 10538 10537 10536 10535 10535 10534 10534 10533 10532 10530 10528 10526 10524 10522 10521 10520 10520 10521 10522 10523 10524 10525 10528 10531 10534 10537 10541 10544 10548 10552 10556 10559 10563 10566 10569 10573 10575 10578 10580 10583 10586 10590 10593 10597 10601 10605 10608 10612 10615 10618 10620 10623 10625 10628 10630 10633 10635 10638 10642 10646 10648 10651 10656 10661 10663 10668 10676 10683 10684 10685 10689
10563 10560 10558 10555 10553 10550 10548 10546 10544 10541 10539 10537 10535 10534 10532 10531 10530 10529 10528 10528 10527 10527 10527 10525 10524 10522 10520 10518 10517 10516 10516 10516 10516 10517 10518 10519 10520 10522 10525 10528 10531 10534 10538 10541 10545 10548 10551 10555 10558 10561 10564 10566 10569 10571 10574 10576 10580 10583 10587 10591 10595 10598 10601 10604 10607 10609 10611 10615 10618 10620 10623 10626 10629 10632 10634 10638 10642 10647 10650 10654 10660 10665 10668 10672 10678
10558 10556 10553 10551 10548 10546 10543 10541 10539 10536 10534 10532 10530 10529 10527 10525 10524 10523 10522 10521 10521 10521 10521 10520 10519 10518 10516 10515 10513 10512 10512 10511 10511 10511 10512 10512 10513 10515 10517 10519 10522 10525 10528 10531 10534 10537 10540 10543 10546 10549 10552 10555 10558 10560 10562 10564 10567 10570 10574 10578 10581 10584 10587 10590 10593 10596 10599 10602 10605 10607 10610 10613 10616 10619 10622 10626 10630 10634 10638 10642 10646 10650 10655 10660 10666
10554 10551 10548 10546 10543 10541 10538 10536 10534 10532 10529 10527 10525 10523 10522 10520 10518 10517 10516 10514 10514 10514 10514 10514 10513 10512 10511 10510 10509 10508 10507 10507 10506 10506 10506 10506 10507 10508 10509 10511 10513 10516 10518 10521 10523 10526 10529 10532 10535 10538 10540 10543 10545 10548 10550 10552 10554 10557 10561 10565 10568 10571 10574 10576 10579 10582 10585 10588 10591 10594 10597 10600 10603 10606 10609 10613 10616 10620 10624 10628 10633 10637 10641 10647 10654
10550 10547 10544 10541 10539 10536 10534 10531 10529 10527 10525 10522 10520 10518 10516 10515 10513 10511 10510 10509 10507 10507 10507 10507 10506 10506 10505 10505 10504 10503 10502 10502 10501 10501 10501 10501 10501 10501 10502 10504 10505 10507 10509 10511 10513 10515 10518 10521 10524 10526 10528 10530 10533 10535 10537 10540 10542 10545 10548 10552 10555 10558 10560 10563 10565 10568 10572 10575 10578 10580 10584 10587 10590 10592 10595 10599 10603 10607 10611 10615 10620 10624 10628 10634 10640
10547 10543 10540 10538 10535 10532 10530 10527 10525 10523 10520 10518 10516 10514 10511 10510 10508 10506 10505 10503 10502 10501 10500 10499 10499 10499 10499 10498 10498 10497 10497 10496 10496 10495 10495 10495 10495 10495 10495 10496 10497 10499 10500 10502 10504 10505 10508 10510 10512 10514 10516 10518 10520 10522 10525 10527 10530 10532 10535 10538 10541 10544 10547 10550 10552 10555 10557 10561 10564 10567 10570 10573 10576 10579 10582 10585 10589 10593 10598 10602 10606 10610 10615 10620 10625
10543 10540 10537 10534 10531 10529 10526 10524 10521 10518 10516 10514 10512 10510 10507 10505 10503 10502 10500 10498 10497 10495 10494 10493 10492 10492 10492 10492 10491 10491 10490 10490 10489 10489 10489 10489 10488 10488 10489 10489 10490 10491 10492 10494 10495 10497 10498 10500 10501 10503 10505 10507 10509 10511 10513 10515 10517 10519 10522 10525 10527 10530 10533 10536 10539 10541 10544 10547 10550 10553 10556 10559 10562 10566 10569 10572 10576 10580 10584 10588 10592 10596 10601 10606 10610
10539 10536 10534 10531 10528 10526 10523 10520 10517 10515 10512 10510 10508 10506 10503 10501 10499 10497 10495 10494 10492 10490 10489 10487 10486 10485 10484 10484 10484 10484 10483 10483 10483 10483 10482 10482 10482 10482 10482 10482 10482 10483 10484 10485 10486 10488 10490 10491 10492 10493 10495 10496 10498 10500 10501 10503 10505 10507 10510 10512 10514 10517 10520 10523 10525 10528 10531 10533 10536 10539 10542 10545 10549 10552 10555 10559 10562 10566 10570 10574 10578 10582 10587 10591 10596
10536 10533 10531 10528 10525 10523 10520 10517 10515 10512 10509 10507 10504 10502 10500 10497 10495 10493 10491 10489 10487 10486 10484 10482 10481 10479 10478 10477 10476 10476 10475 10475 10475 10475 10475 10475 10475 10475 10475 10475 10475 10475 10476 10477 10478 10479 10480 10482 10483 10484 10485 10486 10488 10489 10491 10492 10494 10496 10498 10500 10502 10504 10507 10509 10512 10515 10517 10520 10523 10525 10529 10532 10535 10538 10542 10545 10549 10552 10556 10560 10563 10568 10572 10577 10582
10533 10530 10527 10525 10522 10520 10517 10514 10511 10509 10506 10503 10501 10498 10496 10494 10491 10489 10487 10485 10483 10481 10479 10477 10476 10474 10473 10471 10470 10469 10468 10467 10467 10467 10467 10467 10467 10467 10467 10467 10467 10467 10468 10468 10469 10470 10471 10472 10474 10475 10476 10477 10478 10479 10481 10482 10484 10485 10487 10488 10490 10492 10494 10496 10499 10501 10504 10507 10510 10513 10515 10518 10522 10525 10528 10532 10535 10538 10542 10546 10550 10553 10558 10562 10567
10531 10528 10525 10522 10519 10516 10514 10511 10508 10505 10503 10500 10497 10495 10492 10490 10487 10485 10482 10480 10478 10476 10474 10472 10470 10469 10467 10465 10464 10462 10461 10460 10460 10459 10458 10458 10458 10458 10458 10458 10458 10459 10459 10459 10460 10461 10461 10462 10463 10465 10466 10467 10468 10470 10471 10473 10474 10475 10476 10478 10479 10481 10482 10484 10486 10489 10492 10495 10498 10500 10502 10505 10509 10512 10515 10518 10521 10525 10528 10532 10536 10540 10544 10548 10553
10528 10525 10522 10519 10516 10513 10510 10507 10505 10502 10499 10496 10494 10491 10489 10486 10483 10481 10478 10476 10473 10471 10469 10466 10464 10462 10461 10459 10457 10456 10455 10453 10452 10452 10451 10450 10449 10449 10449 10449 10449 10449 10450 10450 10451 10451 10452 10453 10453 10454 10455 10456 10458 10459 10461 10462 10464 10465 10466 10467 10469 10470 10471 10472 10474 10477 10480 10482 10485 10488 10490 10493 10496 10499 10502 10504 10507 10511 10514 10518 10522 10526 10530 10534 10538
10525 10522 10519 10516 10513 10510 10507 10504 10501 10498 10495 10493 10490 10488 10485 10482 10479 10477 10474 10471 10468 10466 10463 10461 10459 10456 10454 10452 10451 10449 10447 10446 10445 10444 10443 10442 10441 10441 10440 10440 10440 10440 10440 10440 10441 10441 10442 10443 10443 10444 10445 10446 10447 10448 10450 10451 10453 10454 10455 10457 10458 10459 10460 10460 10462 10465 10468 10469 10472 10475 10478 10481 10484 10486 10489 10492 10494 10497 10500 10504 10508 10512 10516 10520 10524
10522 10519 10516 10513 10509 10506 10503 10500 10497 10495 10492 10489 10486 10483 10481 10478 10475 10472 10469 10466 10463 10460 10458 10455 10453 10450 10448 10446 10444 10442 10440 10439 10437 10436 10435 10434 10433 10432 10431 10431 10430 10430 10430 10430 10431 10431 10432 10432 10433 10434 10435 10435 10436 10437 10438 10440 10442 10443 10445 10446 10447 10448 10449 10450 10451 10453 10455 10458 10460 10463 10466 10469 10472 10474 10476 10479 10482 10484 10487 10490 10494 10498 10502 10506 10510
10519 10516 10512 10509 10505 10502 10499 10496 10493 10491 10488 10485 10482 10479 10476 10473 10469 10466 10463 10461 10458 10455 10452 10449 10447 10444 10442 10439 10437 10435 10433 10431 10430 10428 10427 10426 10424 10424 10423 10422 10422 10421 10421 10421 10421 10421 10421 10422 10423 10423 10424 10425 10426 10427 10428 10429 10430 10431 10433 10434 10436 10437 10438 10439 10440 10441 10443 10446 10449 10452 10455 10457 10459 10462 10464 10467 10469 10472 10475 10478 10481 10484 10488 10492 10496
10515 10511 10508 10504 10501 10497 10494 10491 10489 10486 10483 10480 10477 10474 10471 10468 10464 10461 10457 10454 10451 10447 10444 10442 10439 10437 10435 10432 10430 10427 10425 10423 10422 10420 10419 10418 10416 10415 10414 10413 10413 10412 10412 10411 10411 10411 10411 10412 10412 10413 10414 10414 10415 10416 10417 10418 10419 10420 10421 10422 10424 10425 10426 10428 10429 10430 10431 10434 10437 10440 10443 10445 10447 10450 10452 10454 10457 10460 10462 10465 10468 10471 10475 10479 10483